Regional Weather Roundup
Issued by NWS Upton, NY

Current Version | Previous Version | Graphics & Text | Print | Product List | Glossary Off
Versions: 1 2 3 4 5 6 7 8 9 10 11 12 13 14 15 16 17 18 19 20 21 22 23 24 25 26 27

000
ASUS41 KOKX 261605
RWROKX

REGIONAL WEATHER ROUNDUP
NATIONAL WEATHER SERVICE NEW YORK NY
1200 PM EDT TUE JUL 26 2016

NOTE: "FAIR" INDICATES FEW OR NO CLOUDS BELOW 12,000 FEET WITH NO
SIGNIFICANT WEATHER AND/OR OBSTRUCTIONS TO VISIBILITY.

NYZ071-072-176-178-NJZ106-104-261700-
NEW YORK CITY METRO AREA

CITY           SKY/WX    TMP DP  RH WIND       PRES   REMARKS
Central Park   SUNNY     86  70  58 MISG      29.93F HX  90
LaGuardia APRT MOSUNNY   87  65  47 NW16      29.89F
Kennedy INTL   MOSUNNY   89  61  38 W14G23    29.91S
Newark/Liberty MOSUNNY   88  66  48 NW10      29.90F HX  90
Bronx Bot Gard   N/A     86  64  48 N2        29.92R
Wall St Helipt SUNNY     90  64  43 SW8       29.91F HX  91
Teterboro      SUNNY     87  65  47 W10       29.89F
$$

NYZ177-179-078>081-261700-
LONG ISLAND NEW YORK

CITY           SKY/WX    TMP DP  RH WIND       PRES   REMARKS
Farmingdale    SUNNY     89  63  41 NW9G18    29.90F HX  90
MacArthur/ISP  MOSUNNY   88  62  41 W12       29.89S
Shirley        SUNNY     89  62  40 W12       29.89F
Riverhead      NOT AVBL
Westhampton    SUNNY     89  58  34 W12G23    29.89F
Southhampton     N/A     79  72  78 SW7       29.84F
Bridgehampton    N/A     84  72  65 S1        29.87F
East Hampton   FAIR      84  66  54 W10       29.87F
Montauk          N/A     81  68  64 W12G18    29.87F
$$

NYZ052-065-067-261700-
HUDSON VALLEY

CITY           SKY/WX    TMP DP  RH WIND       PRES   REMARKS
White Plains   MOSUNNY   84  66  54 W9G18     29.91S
Newburgh       PTSUNNY   82  68  61 W18       29.93S
Montgomery     MOSUNNY   84  65  52 W13G22    29.91S
Poughkeepsie   PTSUNNY   85  64  49 W9        29.89S
Albany         MOSUNNY   81  62  52 NW14G21   29.90S
$$

NJZ001-105-106-008-010-013-015-019>022-104-261700-
NEW JERSEY

CITY           SKY/WX    TMP DP  RH WIND       PRES   REMARKS
Newark/Liberty MOSUNNY   88  66  48 NW10      29.90F HX  90
Teterboro      SUNNY     87  65  47 W10       29.89F
Caldwell       MOSUNNY   86  66  51 NW9       29.92F
Morristown     MOSUNNY   84  68  58 NW8       29.93S
Somerville     SUNNY     87  65  47 NW9       29.91S
Linden         FAIR      86  64  48 NW10      29.93S
Sussex         MOSUNNY   84  67  56 VRB6      29.93F
Abdover          N/A     83  68  60 VRB5      29.94F
Trenton        MOSUNNY   86  68  54 VRB5      29.93S
Millville      SUNNY     89  67  47 N7        29.94F HX  92
Atlantic City  SUNNY     89  69  51 NW8       29.93F HX  93
Wrightstown    SUNNY     86  70  57 NW10      29.91S HX  91
Toms River     SUNNY     87  68  52 NW9       29.94S HX  90
Belmar         SUNNY     87  67  51 NW8       29.94S HX  90
$$

PAZ047>061-062-071-261700-
EASTERN PENNSYLVANIA

CITY           SKY/WX    TMP DP  RH WIND       PRES   REMARKS
Philadelphia   PTSUNNY   89  67  47 NW9       29.94S HX  92
Allentown      MOSUNNY   85  70  60 W5        29.95F
Scranton       MOSUNNY   83  68  60 CALM      29.97F
$$

CTZ002-004>006-009-010-012-RIZ004-006-007-MAZ004-011-015-261700-
SOUTHERN NEW ENGLAND
 IN CT

CITY           SKY/WX    TMP DP  RH WIND       PRES   REMARKS
Bradley INTL   MOSUNNY   89  59  36 NW16G24   29.85S
Hartford       MOSUNNY   90  61  37 NW14G23   29.85F HX  90
Danbury        SUNNY     84  64  50 NW15G22   29.92R
Wtrbury/Oxford PTSUNNY   82  64  54 NW9G17    29.93F
Bridgeport     MOSUNNY   84  70  62 SW15      29.88S
Meriden        MOSUNNY   86  65  49 NW9       29.87F
New Haven      MOSUNNY   80  71  74 VRB6      29.88S
Chester        FAIR      84  64  51 NW10G22   29.88S
Groton         MOSUNNY   81  70  69 SW15      29.84F
Wilimantic     NOT AVBL

 IN RI

CITY           SKY/WX    TMP DP  RH WIND       PRES   REMARKS
Providence     MOSUNNY   89  63  41 W14       29.82F HX  90
Block Island   SUNNY     80  69  69 W16       29.86F
Westerly       SUNNY     85  67  54 W9        29.86S
 IN MA

CITY           SKY/WX    TMP DP  RH WIND       PRES   REMARKS
Boston         MOSUNNY   90  59  35 NW13G21   29.78S
Worchester     MOSUNNY   83  57  41 NW15G23   29.87S
Westfield      MOSUNNY   87  59  38 NW17G25   29.86S
Provincetown   SUNNY     85  67  54 NW7       29.80S
Nantucket      SUNNY     81  70  69 W14       29.82S
$$

ANZ330-335-338-340-345-350-353-355-261700-
COASTAL MARINE OBSERVATIONS


STATION/POSITION TIME  SKY/WX   TEMP    WIND        PRES    VSBY  WAVE
                                AIR SEA DIR/SP/G                  HT/PER
                 (UTC)          (F)     (DEG/KT/KT) (MB)    (MI)  (FT/S)
NY HARB ENTRANCE 1450            74 72  270/  6/  8 1012.8          2/ 6
20S FIRE ISLAND  1450            75 74  290/  8/ 10 1012.6          3/ 6
GREAT SOUTH BAY  1500            81 81  240/  4/  8   N/A
23 SSW MONTAUK P 1450            71 68  250/  8/  8 1012.4          2/ 6
15 E BARNEGAT LI 1522               77                N/A           3/ 7
HUDSON CANYON    1450            76 77              1012.8          4/ 7
KINGS POINT      1500            79 74              1012.6
EXECUTION ROCKS  1500            81     280/  8/ 10   N/A
CENTRAL LI SOUND 1530            74 74  240/ 12/ 16   N/A           1/ 3
EASTERN LI SOUND 1500            72 68  260/ 12/ 16   N/A
ROBBINS REEF     1500            83     310/ 10/ 13 1012.2
$$


>>>>>>>>>>>>>>>>>>>>>>>>>>>> KEY <<<<<<<<<<<<<<<<<<<<<<<<<<<
>                                                          <
>     SKY/WX - Sky Condition/Present Weather               <
>     TMP    - Temperature in Fahrenheit                   <
>     DP     - Dew Point in Fahrenheit                     <
>     RH     - Relative Humidity in Percent                <
>     WIND   - Direction (from) and Speed in MPH           <
>     PRES   - Mean Sea Level Pressure (inches of Hg)      <
>     WCI    - Wind Chill Index                            <
>     VSB    - VISIBILITY IN MILES                         <
>     HX     - HEAT INDEX                                  <
>     TC     - TEMPERATURE IN CELSIUS                      <
>     VRB    - VARIABLE WIND DIRECTION                     <
>                                                          <
>>>>>>>>>>>>>>>>>>>>>>>>>>>> KEY <<<<<<<<<<<<<<<<<<<<<<<<<<<




USA.gov is the U.S. government's official web portal to all federal, state and local government web resources and services.